{"data":{"norad_id":68957,"epoch":"2026-09-20T02:46:56.872128Z","epoch_age_seconds":52578,"freshness":"FRESH","line1":"1 68957U 26099G   26263.11593602  .00014835  00000+0  44954-3 0  9996","line2":"2 68957  53.1576  77.7277 0001679 108.6618 251.4567 15.34385028 21848","mean_motion":15.34385028,"eccentricity":0.0001679,"inclination_deg":53.1576,"raan_deg":77.7277,"arg_perigee_deg":108.6618,"mean_anomaly_deg":251.4567,"bstar":0.00044954,"rev_number":2184,"period_min":93.848673815396,"perigee_km":461.59915596023,"apogee_km":463.89632505609,"semimajor_km":6840.8847405082,"source":"CELESTRAK","updated_at":"2026-09-20T09:00:44.052622Z"}}